SCP
-0 -0 0 0 -0 0 -0 -0 -0 0 -0 0 0 0 0 0 0 0 0 -0 -0 0 0 0 0 -0 -0 -0 -0 -0 -0 -0 -0 -0 -0 -0 -0 -0 -0 -0 -0 -0 -0 -0 -0 -0 0 0 0
-0 -0 0 -0 -0 0 -0 -0 0 -0 0 0 0 0 0 0 0 0 0 -0 -0 -0 0 0 -0 -0 -0 -0 -0 0 -0 -0 -0 -0 -0 -0 -0 -0 -0 -0 -0 -0 -0 -0 -0 -0 0 0 0
-0 0 0 0 0 0 -0 0 -0 -0 0 0 -0 0 0 -0 -0 0 0 -0 -0 -0 -0 -0 -0 -0 -0 -0 -0 -0 -0 -0 -0 -0 -0 -0 -0 -0 -0 -0 -0 -0 -0 -0 -0 -0 -0 0 0
0 0 0 0 0 -0 -0 0 -0 0 -0 0 -0 -0 0 0 -0 -0 -0 -0 -0 -0 -0 -0 -0 -0 -0 -0 -0 -0 -0 -0 -0 -0 -0 -0 -0 -0 -0 -0 -0 -0 -0 -0 -0 -0 -0 -0 0
0 0 0 0 0 0 -0 -0 -0 0 -0 -0 -0 -0 0 0 -0 -0 -0 -0 -0 -0 -0 -0 -0 -0 -0 -0 -0 -0 -0 -0 -0 -0 -0 -0 -0 -0 -0 -0 -0 -0 -0 -0 -0 -0 0 0 0
0 0 0 0 0 0 0 0 -0 0 0 -0 0 -0 -0 -0 -0 -0 -0 -0 -0 -0 -0 -0 -0 -0 -0 -0 -0 -0 -0 -0 -0 -0 -0 -0 -0 -0 -0 -0 -0 -0 -0 -0 -0 -0 0 0 0
0 0 0 0 0 -0 0 0 0 0 -0 0 0 0 0 -0 -0 -0 -0 -0 -0 -0 -0 -0 -0 -0 -0 -0 -0 -0 -0 -0 -0 -0 -0 -0 -0 -0 0 -0 -0 -0 -0 -0 -0 0 0 0 0
0 0 0 0 0 0 0 0 0 0 0 0 0 0 0 0 -0 -0 -0 -0 -0 -0 -0 -0 0 0 0 0 -0 -0 -0 -0 -0 -0 0 0 0 0 0 0 0 -0 -0 -0 -0 0 0 0 0
0 0 0 0 0 0 0 0 0 0 0 0 0 0 0 -0 0 0 0 0 0 0 -0 -0 -0 0 0 0 0 0 0 0 0 -0 0 0 0 0 0 0 0 0 0 0 0 0 0 0 0
0 0 0 0 0 0 0 0 0 0 0 0 0 0 0 0 0 0 0 0 0 0 0 0 0 0 0 0 0 0 0 0 0 0 0 0 0 0 0 0 0 0 0 0 0 0 0 0 0
0 0 0 0 0 0 0 0 0 0 0 0 0 0 0 0 0 0 0 0 0 0 0 0 0 0 0 0 0 0 0 0 0 0 0 0 0 0 0 0 0 0 0 0 0 0 0 0 0
0 0 0 0 0 0 0 0 0 0 0 0 0 0 0 0 0 0 0 0 0 0 0 0 0 0 0 0 0 0 0 0 0 0 0 0 0 0 0 0 0 0 0 0 0 0 0 0 0
0 0 0 0 0 0 0 0 0 0 0 0 0 0 0 0 0 0 0 0 0 0 0 0 0 0 0 0 0 0 0 0 0 0 0 0 0 0 0 0 0 0 0 0 0 0 0 0 0
0 0 0 0 0 0 0 0 0 0 0 0 0 0 0 0 0 0 0 0 0 0 0 0 0 0 0 0 0 0 0 0 0 0 0 0 0 0 0 0 0 0 0 0 0 0 0 0 0
0 0 0 0 0 0 0 0 0 0 0 0 0 0 0 0 0 0 0 0 0 0 0 0 0 0 0 0 0 0 0 0 0 0 0 0 0 0 0 0 0 0 0 0 0 0 0 0 0
0 0 0 0 0 0 0 0 0 0 0 0 0 0 0 0 0 0 0 0 0 0 0 0 0 0 0 0 0 0 0 0 0 0 0 0 0 0 0 0 0 0 0 0 0 0 0 0 0
0 0 0 0 0 0 0 0 0 0 0 0 0 0 0 0 0 0 0 0 0 0 0 0 0 0 0 0 0 0 0 0 0 0 0 0 0 0 0 0 0 0 0 0 0 0 0 0 0
0 0 0 0 0 0 0 0 0 0 0 0 0 0 0 0 0 0 0 0 0 0 0 0 0 0 0 0 0 0 0 0 0 0 0 0 0 0 0 0 0 0 0 0 0 0 0 0 0
0 0 0 0 0 0 0 0 0 0 0 0 0 0 0 0 0 0 0 0 0 0 0 0 0 0 0 0 0 0 0 0 0 0 0 0 0 0 0 0 0 0 0 0 0 0 0 0 0
0 0 0 0 0 0 0 0 0 0 0 0 0 0 0 0 0 0 0 0 0 0 0 0 0 0 0 0 0 0 0 0 0 0 0 0 0 0 0 0 0 0 0 0 0 0 0 0 0
0 0 0 0 0 0 0 0 0 0 0 0 -0 0 0 0 0 0 0 0 0 0 0 0 0 0 0 0 0 0 0 0 0 0 0 0 0 0 0 0 0 0 0 0 0 0 0 0 0
0 0 0 0 0 0 0 0 0 0 -0 0 0 0 0 0 0 0 0 0 0 0 0 0 0 0 0 0 0 0 0 0 0 0 0 0 0 0 0 0 0 0 0 0 0 0 0 0 0
0 0 0 0 0 0 0 0 -0 -0 0 0 0 0 0 0 0 0 0 0 0 0 0 0 0 0 0 0 0 0 0 0 0 0 0 0 0 0 0 0 0 0 0 0 0 0 0 0 0
0 0 0 0 0 0 0 0 -0 0 -0 0 0 0 0 0 0 0 0 0 0 0 0 0 0 0 0 0 0 0 0 0 0 0 0 0 0 0 0 0 0 0 0 0 0 0 0 0 0
0 0 0 0 0 0 0 0 0 0 0 0 0 0 0 0 0 0 0 0 0 0 0 0 0 0 0 0 0 0 0 0 0 0 0 0 0 0 0 0 0 0 0 0 0 0 0 0 0
0 0 0 0 0 0 0 0 0 -0 0 0 0 0 0 0 0 0 0 0 0 0 0 0 0 0 0 0 0 0 0 0 0 0 0 0 0 0 0 0 0 0 0 0 0 0 0 0 0
0 0 0 0 0 0 0 0 0 0 0 0 0 0 0 0 0 0 0 0 0 0 0 0 0 0 0 0 0 0 0 0 0 0 0 0 0 0 0 0 0 0 0 0 0 0 0 0 0
0 0 0 0 0 0 0 0 0 0 0 0 0 0 0 0 0 0 0 -0 0 0 0 0 0 0 0 0 0 0 0 0 0 0 0 0 0 0 0 0 0 0 0 0 0 0 0 0 0
0 0 0 0 0 0 0 0 0 0 0 0 0 0 0 0 0 0 0 -0 -0 -0 0 0 0 0 0 0 0 0 0 0 0 0 0 0 0 0 0 0 0 0 0 0 0 0 0 0 0
0 0 0 0 0 0 0 0 0 0 0 0 0 0 0 0 0 -0 -0 -0 -0 0 0 0 0 0 0 0 0 0 0 0 0 0 0 0 0 0 0 0 0 0 0 0 0 0 0 0 0
Wind_Speed_500mb
35 35 26 9 8 9 4 4 11 9 6 13 12 17 17 13 5 7 32 28 24 32 34 34 33 28 25 21 16 13 15 18 24 26 32 35 29 29 34 26 24 31 32 33 32 34 36 38 40
35 30 13 5 8 7 5 5 12 9 19 18 11 8 6 4 10 31 36 33 23 34 36 34 32 26 21 19 16 14 13 16 23 31 32 38 33 28 35 22 23 26 29 30 32 34 34 37 40
25 17 9 6 4 7 6 9 14 17 23 17 8 12 10 7 16 45 28 32 33 35 36 34 30 24 22 19 15 15 14 16 20 26 30 33 30 21 29 26 20 24 27 29 31 32 33 36 38
33 10 5 7 2 13 13 11 33 15 5 7 18 16 16 10 26 25 36 38 33 36 37 34 28 25 22 18 16 14 15 15 18 23 26 30 30 20 20 28 20 23 26 27 28 30 32 34 37
17 8 6 5 4 9 12 35 28 10 15 7 7 12 15 15 15 22 44 42 33 34 39 36 29 27 24 20 17 15 14 15 15 17 21 23 32 28 19 18 18 16 21 25 26 27 29 30 30
13 9 8 4 3 7 7 15 22 18 21 11 9 14 9 19 22 34 43 41 34 32 40 38 34 29 27 24 19 16 15 16 16 16 16 18 25 28 25 21 20 20 21 22 24 25 26 26 26
4 6 5 8 4 5 9 16 6 17 20 9 5 8 20 27 23 44 41 37 34 30 38 42 38 34 30 27 23 18 16 16 19 18 17 15 19 21 27 21 22 23 24 24 24 24 24 23 24
3 7 7 6 5 3 8 11 7 13 4 16 7 10 12 35 30 42 39 34 31 30 33 41 40 37 35 32 27 22 19 17 20 21 19 17 16 19 23 26 22 25 26 25 24 24 23 22 22
2 6 3 6 11 1 14 5 4 10 16 9 8 14 14 30 35 44 43 38 36 35 33 41 43 41 38 36 32 28 24 22 19 18 22 21 18 18 21 23 24 25 27 26 24 23 23 22 21
7 7 14 4 4 4 8 7 8 4 4 11 22 16 23 27 39 50 53 51 49 43 37 37 41 44 43 42 38 33 30 28 25 21 22 25 23 22 21 23 23 25 27 26 24 23 23 23 22
9 10 6 7 8 11 9 11 5 6 4 7 28 30 29 29 40 46 47 46 45 43 42 42 38 39 44 44 43 42 38 35 33 30 26 30 29 28 26 27 25 26 29 29 28 27 25 25 24
3 12 15 6 1 4 5 11 4 3 6 7 10 23 26 31 34 38 43 45 43 44 42 46 46 43 42 43 41 38 41 40 39 36 32 36 36 34 32 31 29 31 33 33 31 30 27 28 27
8 8 16 12 5 6 8 8 7 25 17 11 2 17 21 21 24 29 32 35 37 42 41 47 50 50 48 46 44 43 42 43 43 41 38 37 42 37 35 35 36 36 38 38 37 35 35 34 30
6 5 9 11 17 11 9 12 9 7 26 25 22 24 27 25 28 26 32 38 44 45 45 41 50 54 51 51 49 49 45 44 45 43 42 41 44 44 42 40 42 41 42 42 41 39 39 38 35
9 9 10 9 10 9 11 10 23 36 40 38 40 30 39 41 33 36 34 38 40 46 45 50 48 49 56 56 54 54 50 50 49 48 46 46 46 46 46 47 46 44 43 45 46 43 43 43 41
5 5 4 9 25 16 17 14 20 26 33 53 54 56 47 37 45 43 46 48 44 44 52 52 54 53 53 58 59 59 58 57 56 55 53 52 51 49 51 52 51 47 48 49 50 49 49 49 47
4 7 9 12 14 9 13 8 20 17 9 23 34 39 47 67 62 60 53 54 53 51 51 56 59 59 56 55 57 61 62 63 63 61 61 59 58 56 57 57 54 52 54 56 56 56 55 55 52
9 7 7 10 8 9 9 9 17 36 37 41 47 45 39 33 40 43 44 56 57 52 52 53 57 60 58 57 57 60 63 67 69 69 70 66 64 62 63 65 62 59 62 63 63 64 61 61 55
6 5 6 8 6 9 13 12 15 35 39 43 54 56 58 57 52 48 39 26 60 56 54 55 55 57 59 63 65 67 70 69 73 75 76 76 71 70 68 72 72 68 71 69 69 69 68 68 60
10 7 13 12 15 6 13 17 17 29 42 56 69 67 76 63 64 63 60 47 39 39 44 50 54 58 60 63 65 67 69 72 71 74 78 79 79 78 76 78 80 78 78 78 77 77 76 75 68
13 14 7 12 12 12 9 18 17 24 49 69 80 71 69 67 64 60 61 56 52 51 53 55 59 61 63 64 65 64 68 70 72 80 82 84 84 85 83 83 85 86 86 88 85 84 83 84 80
16 11 16 10 7 8 9 10 11 17 25 20 60 49 63 63 65 68 66 58 49 40 27 34 52 55 57 58 69 72 73 75 72 72 78 82 84 88 87 89 90 93 94 95 95 92 93 89 93
10 12 7 5 4 6 7 5 13 14 13 32 40 56 42 32 30 25 24 24 26 21 23 22 27 32 36 44 61 66 75 78 75 74 76 77 81 83 86 89 94 99 101 102 103 103 103 103 102
13 12 12 8 6 7 16 15 8 11 12 13 14 21 19 21 23 20 17 14 11 14 14 15 11 16 24 37 46 50 61 69 77 80 83 85 83 85 86 88 92 97 104 106 110 111 112 111 111
13 16 3 6 2 14 7 14 12 15 13 7 18 26 32 31 28 24 14 4 1 5 12 18 26 28 25 31 34 38 55 66 70 75 81 87 90 90 89 89 95 99 102 107 110 115 120 122 121
12 16 10 15 9 9 4 13 12 26 20 21 29 38 31 25 13 13 12 7 21 20 21 21 28 32 28 30 42 43 45 49 60 70 78 84 93 96 92 93 96 101 103 106 111 119 121 122 128
9 20 16 7 4 5 9 13 16 6 3 13 35 36 27 21 25 18 3 26 20 18 21 30 33 36 37 39 42 46 48 55 60 65 72 80 86 96 98 97 99 102 102 106 114 120 124 124 126
14 15 9 3 4 9 10 10 12 4 15 16 20 27 24 29 15 1 20 9 10 16 27 38 38 37 41 44 47 49 52 57 63 68 75 78 79 84 92 99 101 105 111 114 110 119 121 127 131
16 11 10 12 11 8 4 11 15 34 21 17 18 33 30 18 2 22 9 4 22 30 24 32 37 39 42 43 46 50 53 58 64 69 73 76 78 81 89 96 101 111 115 117 122 124 123 123 131
33 14 17 10 7 10 2 15 2 14 16 32 28 27 17 2 24 1 8 25 28 23 35 37 40 46 46 48 47 49 53 58 61 66 74 81 87 89 89 90 101 108 111 114 125 132 134 126 129
Wind_Direction_500mb
341 341 336 357 51 71 171 134 137 114 70 92 84 89 114 60 81 166 146 186 169 158 157 151 145 147 142 141 130 116 110 107 124 117 113 111 108 106 98 101 104 100 107 107 106 100 98 103 97
338 342 2 6 85 75 277 111 104 131 122 123 95 95 58 96 113 138 144 180 176 162 159 157 151 149 149 140 130 125 117 117 126 124 119 121 118 114 113 104 99 108 105 106 104 103 106 108 105
342 352 324 91 106 144 140 143 136 121 131 152 110 81 93 107 128 154 173 179 164 161 162 159 155 150 153 142 137 132 126 124 128 129 124 124 114 112 117 120 108 117 114 109 107 107 110 113 112
350 12 278 73 315 344 116 161 123 116 80 99 112 83 88 131 145 157 166 172 171 160 164 163 161 157 155 149 145 142 132 131 138 133 135 127 118 117 116 130 129 115 117 114 114 113 115 116 118
10 309 19 27 351 137 93 138 137 150 154 159 124 146 100 130 176 170 164 177 178 162 170 169 170 167 165 163 160 154 144 141 144 142 142 140 132 137 147 153 151 131 120 126 124 122 122 122 123
355 5 36 358 22 101 70 127 151 143 143 145 123 112 117 174 182 170 167 178 183 175 176 176 176 177 177 177 173 169 165 163 159 155 153 158 153 149 151 155 159 152 142 140 136 133 132 130 129
65 68 238 301 265 114 156 151 146 151 152 169 109 72 140 177 179 168 170 185 189 189 184 182 184 185 187 185 183 183 185 184 180 174 173 172 172 169 153 164 172 166 158 154 150 147 143 141 138
359 97 310 291 312 94 163 128 84 110 112 130 118 147 174 181 175 168 171 189 199 197 191 189 192 195 195 194 194 196 201 204 188 192 189 187 190 192 182 180 179 174 168 165 164 160 158 156 153
122 67 232 274 11 35 155 91 98 84 120 106 122 157 155 163 174 167 175 188 202 214 201 198 201 202 203 204 205 205 207 215 212 201 207 203 200 205 205 194 193 186 178 175 174 172 170 169 167
148 142 213 206 47 35 6 91 155 68 123 127 117 138 155 169 182 178 187 194 201 213 214 209 210 211 209 210 212 214 216 219 228 227 221 214 209 212 211 209 202 194 191 188 188 186 185 184 182
195 186 262 360 74 48 13 43 108 79 36 62 182 176 182 181 182 190 198 207 210 214 214 222 219 220 219 214 211 219 221 224 228 229 226 224 214 217 215 214 208 204 205 203 200 200 199 197 196
224 228 261 328 47 58 54 345 33 175 159 76 66 207 191 194 197 200 205 211 213 223 224 222 224 226 228 222 222 223 225 230 233 234 230 229 228 221 218 217 220 215 217 215 211 210 212 211 210
212 259 272 320 187 196 291 306 300 279 230 276 191 181 212 218 222 222 222 222 227 229 232 228 226 229 232 232 233 232 232 235 237 237 235 229 235 234 227 223 223 221 222 222 221 217 219 225 231
357 22 326 328 288 183 224 270 298 246 253 266 258 225 213 234 249 233 226 227 229 238 235 235 232 234 236 237 237 237 238 240 238 237 238 238 241 243 234 231 229 226 226 229 227 227 227 231 233
8 12 354 276 244 233 179 281 237 255 254 260 260 260 240 237 238 244 253 248 245 243 244 239 239 238 239 242 241 242 243 243 242 244 243 243 246 244 237 238 234 234 230 231 232 230 232 234 236
38 21 355 262 211 221 153 257 244 255 267 257 258 258 255 249 235 249 245 250 250 247 244 243 242 241 241 241 242 243 242 243 244 245 247 246 247 246 245 241 243 239 236 235 236 235 236 239 240
277 220 230 310 245 187 170 217 248 251 288 296 290 270 263 253 249 248 248 248 246 248 244 244 243 245 244 243 244 245 245 245 247 247 247 249 249 247 247 246 245 243 241 240 239 238 238 241 242
190 209 254 237 291 158 237 240 277 279 303 303 296 285 276 256 236 237 245 254 247 246 250 249 250 251 250 249 248 247 246 246 248 249 249 249 250 249 249 251 248 243 242 241 241 242 242 244 246
52 10 275 260 270 242 243 250 259 282 285 275 278 278 267 254 240 236 244 261 240 242 246 248 250 255 252 247 246 246 246 246 246 248 251 251 251 251 249 251 250 245 243 244 244 244 243 245 242
269 274 277 299 300 207 278 261 238 251 264 262 257 257 258 263 262 260 254 260 264 255 248 247 253 255 254 255 259 256 258 258 257 256 254 254 253 253 252 251 252 249 247 245 244 242 243 244 241
211 225 241 244 319 320 307 287 254 250 245 257 261 256 258 259 261 260 259 262 264 261 255 252 256 256 255 259 258 257 256 257 258 257 256 256 256 256 255 254 253 253 250 250 248 246 243 243 242
217 206 234 248 296 236 78 287 288 271 259 244 265 261 255 254 254 254 250 245 263 264 242 240 243 245 252 258 257 257 259 261 268 271 269 266 263 260 259 258 257 255 254 251 251 249 246 242 244
188 119 131 195 195 346 168 280 259 250 256 256 254 257 247 249 250 248 246 233 213 234 250 254 252 249 247 253 257 263 263 264 270 269 271 271 270 267 264 262 260 258 256 255 253 251 247 245 244
160 91 55 51 75 285 200 190 246 218 220 254 246 253 217 182 156 157 167 181 217 257 270 282 292 298 269 257 253 260 266 268 268 269 269 271 271 271 267 266 263 263 261 259 257 256 253 249 247
124 115 16 359 349 239 229 196 252 261 246 288 173 134 148 147 151 159 160 156 119 16 317 297 306 307 290 274 275 270 263 262 265 269 271 271 270 270 269 268 264 263 263 263 261 258 257 254 249
169 159 160 198 201 259 105 233 263 230 269 229 146 136 137 138 148 150 128 94 319 314 313 311 308 302 287 288 288 280 276 273 266 267 270 271 272 272 273 271 270 268 266 265 263 260 260 259 256
187 209 176 69 19 56 240 276 307 247 145 151 157 155 151 148 146 138 88 333 318 319 322 324 317 308 300 297 290 284 273 272 273 271 272 274 273 272 269 268 269 268 265 262 262 259 258 256 257
168 139 158 97 223 250 252 249 227 259 227 190 177 168 145 139 147 360 333 349 345 320 309 303 301 307 302 293 289 288 288 285 282 280 273 269 271 272 272 271 266 263 264 263 261 258 255 253 254
183 186 188 176 183 205 251 250 219 227 207 183 169 147 155 158 43 337 339 328 315 314 312 312 311 309 312 308 299 295 294 293 288 283 280 278 276 272 271 271 271 269 264 263 260 261 260 252 250
216 198 194 181 216 228 238 258 133 117 131 135 148 159 163 59 335 28 324 318 326 317 310 315 310 314 312 312 310 305 302 301 300 292 284 281 280 278 276 269 270 269 263 258 259 259 259 255 250
Wind_Speed_850mb
35 35 26 9 8 9 4 4 11 9 6 13 12 17 17 13 5 7 32 28 24 32 34 34 33 28 25 21 16 13 15 18 24 26 32 35 29 29 34 26 24 31 32 33 32 34 36 38 40
35 30 13 5 8 7 5 5 12 9 19 18 11 8 6 4 10 31 36 33 23 34 36 34 32 26 21 19 16 14 13 16 23 31 32 38 33 28 35 22 23 26 29 30 32 34 34 37 40
25 17 9 6 4 7 6 9 14 17 23 17 8 12 10 7 16 45 28 32 33 35 36 34 30 24 22 19 15 15 14 16 20 26 30 33 30 21 29 26 20 24 27 29 31 32 33 36 38
33 10 5 7 2 13 13 11 33 15 5 7 18 16 16 10 26 25 36 38 33 36 37 34 28 25 22 18 16 14 15 15 18 23 26 30 30 20 20 28 20 23 26 27 28 30 32 34 37
17 8 6 5 4 9 12 35 28 10 15 7 7 12 15 15 15 22 44 42 33 34 39 36 29 27 24 20 17 15 14 15 15 17 21 23 32 28 19 18 18 16 21 25 26 27 29 30 30
13 9 8 4 3 7 7 15 22 18 21 11 9 14 9 19 22 34 43 41 34 32 40 38 34 29 27 24 19 16 15 16 16 16 16 18 25 28 25 21 20 20 21 22 24 25 26 26 26
4 6 5 8 4 5 9 16 6 17 20 9 5 8 20 27 23 44 41 37 34 30 38 42 38 34 30 27 23 18 16 16 19 18 17 15 19 21 27 21 22 23 24 24 24 24 24 23 24
3 7 7 6 5 3 8 11 7 13 4 16 7 10 12 35 30 42 39 34 31 30 33 41 40 37 35 32 27 22 19 17 20 21 19 17 16 19 23 26 22 25 26 25 24 24 23 22 22
2 6 3 6 11 1 14 5 4 10 16 9 8 14 14 30 35 44 43 38 36 35 33 41 43 41 38 36 32 28 24 22 19 18 22 21 18 18 21 23 24 25 27 26 24 23 23 22 21
7 7 14 4 4 4 8 7 8 4 4 11 22 16 23 27 39 50 53 51 49 43 37 37 41 44 43 42 38 33 30 28 25 21 22 25 23 22 21 23 23 25 27 26 24 23 23 23 22
9 10 6 7 8 11 9 11 5 6 4 7 28 30 29 29 40 46 47 46 45 43 42 42 38 39 44 44 43 42 38 35 33 30 26 30 29 28 26 27 25 26 29 29 28 27 25 25 24
3 12 15 6 1 4 5 11 4 3 6 7 10 23 26 31 34 38 43 45 43 44 42 46 46 43 42 43 41 38 41 40 39 36 32 36 36 34 32 31 29 31 33 33 31 30 27 28 27
8 8 16 12 5 6 8 8 7 25 17 11 2 17 21 21 24 29 32 35 37 42 41 47 50 50 48 46 44 43 42 43 43 41 38 37 42 37 35 35 36 36 38 38 37 35 35 34 30
6 5 9 11 17 11 9 12 9 7 26 25 22 24 27 25 28 26 32 38 44 45 45 41 50 54 51 51 49 49 45 44 45 43 42 41 44 44 42 40 42 41 42 42 41 39 39 38 35
9 9 10 9 10 9 11 10 23 36 40 38 40 30 39 41 33 36 34 38 40 46 45 50 48 49 56 56 54 54 50 50 49 48 46 46 46 46 46 47 46 44 43 45 46 43 43 43 41
5 5 4 9 25 16 17 14 20 26 33 53 54 56 47 37 45 43 46 48 44 44 52 52 54 53 53 58 59 59 58 57 56 55 53 52 51 49 51 52 51 47 48 49 50 49 49 49 47
4 7 9 12 14 9 13 8 20 17 9 23 34 39 47 67 62 60 53 54 53 51 51 56 59 59 56 55 57 61 62 63 63 61 61 59 58 56 57 57 54 52 54 56 56 56 55 55 52
9 7 7 10 8 9 9 9 17 36 37 41 47 45 39 33 40 43 44 56 57 52 52 53 57 60 58 57 57 60 63 67 69 69 70 66 64 62 63 65 62 59 62 63 63 64 61 61 55
6 5 6 8 6 9 13 12 15 35 39 43 54 56 58 57 52 48 39 26 60 56 54 55 55 57 59 63 65 67 70 69 73 75 76 76 71 70 68 72 72 68 71 69 69 69 68 68 60
10 7 13 12 15 6 13 17 17 29 42 56 69 67 76 63 64 63 60 47 39 39 44 50 54 58 60 63 65 67 69 72 71 74 78 79 79 78 76 78 80 78 78 78 77 77 76 75 68
13 14 7 12 12 12 9 18 17 24 49 69 80 71 69 67 64 60 61 56 52 51 53 55 59 61 63 64 65 64 68 70 72 80 82 84 84 85 83 83 85 86 86 88 85 84 83 84 80
16 11 16 10 7 8 9 10 11 17 25 20 60 49 63 63 65 68 66 58 49 40 27 34 52 55 57 58 69 72 73 75 72 72 78 82 84 88 87 89 90 93 94 95 95 92 93 89 93
10 12 7 5 4 6 7 5 13 14 13 32 40 56 42 32 30 25 24 24 26 21 23 22 27 32 36 44 61 66 75 78 75 74 76 77 81 83 86 89 94 99 101 102 103 103 103 103 102
13 12 12 8 6 7 16 15 8 11 12 13 14 21 19 21 23 20 17 14 11 14 14 15 11 16 24 37 46 50 61 69 77 80 83 85 83 85 86 88 92 97 104 106 110 111 112 111 111
13 16 3 6 2 14 7 14 12 15 13 7 18 26 32 31 28 24 14 4 1 5 12 18 26 28 25 31 34 38 55 66 70 75 81 87 90 90 89 89 95 99 102 107 110 115 120 122 121
12 16 10 15 9 9 4 13 12 26 20 21 29 38 31 25 13 13 12 7 21 20 21 21 28 32 28 30 42 43 45 49 60 70 78 84 93 96 92 93 96 101 103 106 111 119 121 122 128
9 20 16 7 4 5 9 13 16 6 3 13 35 36 27 21 25 18 3 26 20 18 21 30 33 36 37 39 42 46 48 55 60 65 72 80 86 96 98 97 99 102 102 106 114 120 124 124 126
14 15 9 3 4 9 10 10 12 4 15 16 20 27 24 29 15 1 20 9 10 16 27 38 38 37 41 44 47 49 52 57 63 68 75 78 79 84 92 99 101 105 111 114 110 119 121 127 131
16 11 10 12 11 8 4 11 15 34 21 17 18 33 30 18 2 22 9 4 22 30 24 32 37 39 42 43 46 50 53 58 64 69 73 76 78 81 89 96 101 111 115 117 122 124 123 123 131
33 14 17 10 7 10 2 15 2 14 16 32 28 27 17 2 24 1 8 25 28 23 35 37 40 46 46 48 47 49 53 58 61 66 74 81 87 89 89 90 101 108 111 114 125 132 134 126 129
Wind_Direction_850mb
341 341 336 357 51 71 171 134 137 114 70 92 84 89 114 60 81 166 146 186 169 158 157 151 145 147 142 141 130 116 110 107 124 117 113 111 108 106 98 101 104 100 107 107 106 100 98 103 97
338 342 2 6 85 75 277 111 104 131 122 123 95 95 58 96 113 138 144 180 176 162 159 157 151 149 149 140 130 125 117 117 126 124 119 121 118 114 113 104 99 108 105 106 104 103 106 108 105
342 352 324 91 106 144 140 143 136 121 131 152 110 81 93 107 128 154 173 179 164 161 162 159 155 150 153 142 137 132 126 124 128 129 124 124 114 112 117 120 108 117 114 109 107 107 110 113 112
350 12 278 73 315 344 116 161 123 116 80 99 112 83 88 131 145 157 166 172 171 160 164 163 161 157 155 149 145 142 132 131 138 133 135 127 118 117 116 130 129 115 117 114 114 113 115 116 118
10 309 19 27 351 137 93 138 137 150 154 159 124 146 100 130 176 170 164 177 178 162 170 169 170 167 165 163 160 154 144 141 144 142 142 140 132 137 147 153 151 131 120 126 124 122 122 122 123
355 5 36 358 22 101 70 127 151 143 143 145 123 112 117 174 182 170 167 178 183 175 176 176 176 177 177 177 173 169 165 163 159 155 153 158 153 149 151 155 159 152 142 140 136 133 132 130 129
65 68 238 301 265 114 156 151 146 151 152 169 109 72 140 177 179 168 170 185 189 189 184 182 184 185 187 185 183 183 185 184 180 174 173 172 172 169 153 164 172 166 158 154 150 147 143 141 138
359 97 310 291 312 94 163 128 84 110 112 130 118 147 174 181 175 168 171 189 199 197 191 189 192 195 195 194 194 196 201 204 188 192 189 187 190 192 182 180 179 174 168 165 164 160 158 156 153
122 67 232 274 11 35 155 91 98 84 120 106 122 157 155 163 174 167 175 188 202 214 201 198 201 202 203 204 205 205 207 215 212 201 207 203 200 205 205 194 193 186 178 175 174 172 170 169 167
148 142 213 206 47 35 6 91 155 68 123 127 117 138 155 169 182 178 187 194 201 213 214 209 210 211 209 210 212 214 216 219 228 227 221 214 209 212 211 209 202 194 191 188 188 186 185 184 182
195 186 262 360 74 48 13 43 108 79 36 62 182 176 182 181 182 190 198 207 210 214 214 222 219 220 219 214 211 219 221 224 228 229 226 224 214 217 215 214 208 204 205 203 200 200 199 197 196
224 228 261 328 47 58 54 345 33 175 159 76 66 207 191 194 197 200 205 211 213 223 224 222 224 226 228 222 222 223 225 230 233 234 230 229 228 221 218 217 220 215 217 215 211 210 212 211 210
212 259 272 320 187 196 291 306 300 279 230 276 191 181 212 218 222 222 222 222 227 229 232 228 226 229 232 232 233 232 232 235 237 237 235 229 235 234 227 223 223 221 222 222 221 217 219 225 231
357 22 326 328 288 183 224 270 298 246 253 266 258 225 213 234 249 233 226 227 229 238 235 235 232 234 236 237 237 237 238 240 238 237 238 238 241 243 234 231 229 226 226 229 227 227 227 231 233
8 12 354 276 244 233 179 281 237 255 254 260 260 260 240 237 238 244 253 248 245 243 244 239 239 238 239 242 241 242 243 243 242 244 243 243 246 244 237 238 234 234 230 231 232 230 232 234 236
38 21 355 262 211 221 153 257 244 255 267 257 258 258 255 249 235 249 245 250 250 247 244 243 242 241 241 241 242 243 242 243 244 245 247 246 247 246 245 241 243 239 236 235 236 235 236 239 240
277 220 230 310 245 187 170 217 248 251 288 296 290 270 263 253 249 248 248 248 246 248 244 244 243 245 244 243 244 245 245 245 247 247 247 249 249 247 247 246 245 243 241 240 239 238 238 241 242
190 209 254 237 291 158 237 240 277 279 303 303 296 285 276 256 236 237 245 254 247 246 250 249 250 251 250 249 248 247 246 246 248 249 249 249 250 249 249 251 248 243 242 241 241 242 242 244 246
52 10 275 260 270 242 243 250 259 282 285 275 278 278 267 254 240 236 244 261 240 242 246 248 250 255 252 247 246 246 246 246 246 248 251 251 251 251 249 251 250 245 243 244 244 244 243 245 242
269 274 277 299 300 207 278 261 238 251 264 262 257 257 258 263 262 260 254 260 264 255 248 247 253 255 254 255 259 256 258 258 257 256 254 254 253 253 252 251 252 249 247 245 244 242 243 244 241
211 225 241 244 319 320 307 287 254 250 245 257 261 256 258 259 261 260 259 262 264 261 255 252 256 256 255 259 258 257 256 257 258 257 256 256 256 256 255 254 253 253 250 250 248 246 243 243 242
217 206 234 248 296 236 78 287 288 271 259 244 265 261 255 254 254 254 250 245 263 264 242 240 243 245 252 258 257 257 259 261 268 271 269 266 263 260 259 258 257 255 254 251 251 249 246 242 244
188 119 131 195 195 346 168 280 259 250 256 256 254 257 247 249 250 248 246 233 213 234 250 254 252 249 247 253 257 263 263 264 270 269 271 271 270 267 264 262 260 258 256 255 253 251 247 245 244
160 91 55 51 75 285 200 190 246 218 220 254 246 253 217 182 156 157 167 181 217 257 270 282 292 298 269 257 253 260 266 268 268 269 269 271 271 271 267 266 263 263 261 259 257 256 253 249 247
124 115 16 359 349 239 229 196 252 261 246 288 173 134 148 147 151 159 160 156 119 16 317 297 306 307 290 274 275 270 263 262 265 269 271 271 270 270 269 268 264 263 263 263 261 258 257 254 249
169 159 160 198 201 259 105 233 263 230 269 229 146 136 137 138 148 150 128 94 319 314 313 311 308 302 287 288 288 280 276 273 266 267 270 271 272 272 273 271 270 268 266 265 263 260 260 259 256
187 209 176 69 19 56 240 276 307 247 145 151 157 155 151 148 146 138 88 333 318 319 322 324 317 308 300 297 290 284 273 272 273 271 272 274 273 272 269 268 269 268 265 262 262 259 258 256 257
168 139 158 97 223 250 252 249 227 259 227 190 177 168 145 139 147 360 333 349 345 320 309 303 301 307 302 293 289 288 288 285 282 280 273 269 271 272 272 271 266 263 264 263 261 258 255 253 254
183 186 188 176 183 205 251 250 219 227 207 183 169 147 155 158 43 337 339 328 315 314 312 312 311 309 312 308 299 295 294 293 288 283 280 278 276 272 271 271 271 269 264 263 260 261 260 252 250
216 198 194 181 216 228 238 258 133 117 131 135 148 159 163 59 335 28 324 318 326 317 310 315 310 314 312 312 310 305 302 301 300 292 284 281 280 278 276 269 270 269 263 258 259 259 259 255 250